Back to catalog

STARLINK-34753

AliveCommunicationsSSO
NORAD 64946·PAYLOAD·🇺🇸 United States

Launched Jul 26, 2025 from Vandenberg Space Force Base

Loading…

Next Passes (next 24 hours)

TLE

FreshSource: CelesTrak SupGP

Epoch: Sep 14, 2026, 21:04 UTC

1 64946C 25158Q   26257.87826389  .00019518  00000+0  60594-3 0  2570
2 64946  97.2844 116.1884 0001776  88.0440 134.2999 15.33425678    11

Track STARLINK-34753 in real time with AllMySat

Download on the App Store